Location: The Saddle
(36.8333°N, 80.3417°W)
Time: 22:50:38
(UTC-05:00)

Altair - All Passes

Search period start: 22 January 2022 00:00
Search period end: 01 February 2022 00:00
Orbit: 1501 x 1683 km, 47.2° (Epoch: 22 January)

Date Brightness Start Highest point End Pass type
(mag) Time Alt. Az. Time Alt. Az. Time Alt. Az.
22 Jan - 01:52:03 10° SW 02:01:57 77° SE 02:12:07 10° ENE visible
22 Jan - 03:57:36 10° W 04:07:26 54° NNW 04:17:23 10° ENE visible
22 Jan - 06:04:19 10° WNW 06:14:07 49° N 06:23:48 10° E visible
22 Jan - 08:09:50 10° WNW 08:20:05 83° NNE 08:30:03 10° ESE daylight
22 Jan - 10:15:32 10° WNW 10:24:15 35° SW 10:32:44 10° S daylight
22 Jan - 23:26:39 10° SSE 23:33:13 20° SE 23:39:55 10° E night (unlit)
23 Jan - 01:26:56 10° SW 01:36:45 72° SE 01:46:52 10° ENE visible
23 Jan - 03:32:16 10° W 03:42:07 56° NNW 03:52:06 10° ENE visible
23 Jan - 05:39:00 10° WNW 05:48:45 48° N 05:58:26 10° E visible
23 Jan - 07:44:35 10° WNW 07:54:50 79° NNE 08:04:49 10° ESE daylight
23 Jan - 09:50:09 10° WNW 09:59:09 38° SW 10:07:54 10° SSE daylight
23 Jan - 23:02:13 10° SSE 23:08:09 18° ESE 23:14:11 10° E night (unlit)
24 Jan - 01:01:50 10° SW 01:11:34 67° SE 01:21:36 10° ENE visible
24 Jan - 03:06:56 10° W 03:16:47 58° NNW 03:26:50 10° ENE visible
24 Jan - 05:13:40 10° WNW 05:23:23 47° N 05:33:04 10° ENE visible
24 Jan - 07:19:21 10° WNW 07:29:35 75° NNE 07:39:34 10° ESE daylight
24 Jan - 09:24:47 10° WNW 09:34:01 42° SW 09:43:01 10° SSE daylight
24 Jan - 22:37:57 10° SSE 22:43:07 16° ESE 22:48:20 10° E night (unlit)
25 Jan - 00:36:47 10° SW 00:46:24 62° SE 00:56:19 10° ENE visible
25 Jan - 02:41:37 10° W 02:51:29 60° NNW 03:01:33 10° ENE visible
25 Jan - 04:48:21 10° WNW 04:58:02 47° N 05:07:44 10° ENE visible
25 Jan - 06:54:06 10° WNW 07:04:18 72° NNE 07:14:19 10° ESE visible
25 Jan - 08:59:27 10° WNW 09:08:54 46° SW 09:18:05 10° SSE daylight
25 Jan - 22:13:54 10° SSE 22:18:04 13° ESE 22:22:15 10° E night (unlit)
26 Jan - 00:11:45 10° SSW 00:21:14 58° SE 00:31:03 10° ENE night (unlit)
26 Jan - 02:16:19 10° WSW 02:26:11 63° NNW 02:36:18 10° ENE visible
26 Jan - 04:23:00 10° WNW 04:32:40 47° N 04:42:21 10° ENE visible
26 Jan - 06:28:50 10° WNW 06:39:01 68° NNE 06:49:02 10° ESE visible
26 Jan - 08:34:08 10° WNW 08:43:45 50° SW 08:53:09 10° SSE daylight
26 Jan - 10:45:46 10° WSW 10:46:47 10° WSW 10:47:49 10° SW daylight
26 Jan - 21:50:21 10° SE 21:53:02 11° ESE 21:55:43 10° ESE night (unlit)
26 Jan - 23:46:45 10° SSW 23:56:05 53° SE 00:05:45 10° ENE night (unlit)
27 Jan - 01:51:01 10° WSW 02:00:53 66° NNW 02:11:02 10° ENE visible
27 Jan - 03:57:39 10° WNW 04:07:18 46° N 04:17:00 10° ENE visible
27 Jan - 06:03:36 10° WNW 06:13:44 65° NNE 06:23:44 10° ESE visible
27 Jan - 08:08:50 10° WNW 08:18:36 55° SW 08:28:09 10° SSE daylight
27 Jan - 10:18:17 10° W 10:21:45 12° WSW 10:25:11 10° SW daylight
27 Jan - 23:21:46 10° SSW 23:30:57 49° SE 23:40:26 10° ENE night (unlit)
28 Jan - 01:25:44 10° WSW 01:35:36 69° NNW 01:45:46 10° ENE visible
28 Jan - 03:32:19 10° WNW 03:41:56 47° N 03:51:38 10° ENE visible
28 Jan - 05:38:21 10° WNW 05:48:26 62° NNE 05:58:25 10° ESE visible
28 Jan - 07:43:33 10° WNW 07:53:26 59° SW 08:03:08 10° SSE daylight
28 Jan - 09:51:59 10° W 09:56:42 14° WSW 10:01:23 10° SSW daylight
28 Jan - 22:56:51 10° SSW 23:05:50 44° SE 23:15:06 10° ENE night (unlit)
29 Jan - 01:00:29 10° WSW 01:10:20 72° NNW 01:20:31 10° ENE visible
29 Jan - 03:06:59 10° WNW 03:16:34 47° N 03:26:18 10° ENE visible
29 Jan - 05:13:05 10° WNW 05:23:08 60° NNE 05:33:06 10° E visible
29 Jan - 07:18:16 10° WNW 07:28:16 64° SW 07:38:05 10° SE daylight
29 Jan - 09:26:01 10° W 09:31:39 17° WSW 09:37:13 10° SSW daylight
29 Jan - 22:31:57 10° SSW 22:40:42 41° SE 22:49:45 10° ENE night (unlit)
30 Jan - 00:35:14 10° WSW 00:45:04 76° NNW 00:55:15 10° ENE visible
30 Jan - 02:41:38 10° WNW 02:51:12 47° N 03:00:57 10° ENE visible
30 Jan - 04:47:49 10° WNW 04:57:48 57° NNE 05:07:45 10° E visible
30 Jan - 06:53:00 10° WNW 07:03:05 69° SW 07:12:59 10° SE visible
30 Jan - 09:00:13 10° W 09:06:35 19° WSW 09:12:52 10° SSW daylight
30 Jan - 22:07:05 10° SSW 22:15:36 37° SE 22:24:23 10° ENE night (unlit)
31 Jan - 00:10:01 10° WSW 00:19:49 80° NNW 00:30:00 10° ENE night (unlit)
31 Jan - 02:16:17 10° W 02:25:51 48° N 02:35:37 10° ENE visible
31 Jan - 04:22:33 10° WNW 04:32:29 55° NNE 04:42:24 10° E visible
31 Jan - 06:27:44 10° WNW 06:37:53 74° SW 06:47:52 10° SE visible
31 Jan - 08:34:33 10° W 08:41:30 21° SW 08:48:24 10° S daylight
31 Jan - 21:42:16 10° S 21:50:30 33° SE 21:58:59 10° ENE visible
